This is the latest recevied weather packets stored in our database for station/object WX1NWA. If no packets are shown the sender has not sent any weather packets the latest 1 day(s).
| Time | Temp. | Humidity | Pressure | Rain* | Wind** | Luminosity | Snow |
|---|---|---|---|---|---|---|---|
| 1778080095 | 5.56° C | 99% | 1018.7 hPa | 0 mm | - | 134 W/m² | - |
| 1778078883 | 5.56° C | 99% | 1018.3 hPa | 0 mm | - | 184 W/m² | - |
| 1778078278 | 6.11° C | 99% | 1018.6 hPa | 0 mm | - | 148 W/m² | - |
| 1778076464 | 5.56° C | 99% | 1018.3 hPa | 0 mm | - | 104 W/m² | - |
| 1778075251 | 5° C | 99% | 1018.5 hPa | 0 mm | - | 95 W/m² | - |
| 1778074645 | 5° C | 99% | 1018.3 hPa | 0 mm | - | 70 W/m² | - |
| 1778072523 | 5° C | 99% | 1017.8 hPa | 0 mm | - | 53 W/m² | - |
| 1778072221 | 5° C | 99% | 1017.7 hPa | 0 mm | - | 51 W/m² | - |
| 1778070710 | 5° C | 99% | 1017.5 hPa | 0 mm | - | 50 W/m² | - |
| 1778070406 | 5° C | 99% | 1017.6 hPa | 0 mm | - | 52 W/m² | - |
| 1778070104 | 5° C | 99% | 1017.6 hPa | 0 mm | - | 29 W/m² | - |
| 1778068290 | 5° C | 99% | 1016.7 hPa | 0 mm | - | 12 W/m² | - |
| 1778066775 | 4.44° C | 99% | 1016.4 hPa | 0 mm | - | 4 W/m² | - |
| 1778065868 | 4.44° C | 99% | 1016.1 hPa | 0 mm | - | 0 W/m² | - |
| 1778064656 | 4.44° C | 99% | 1015.5 hPa | 0 mm | - | 0 W/m² | - |
| 1778064051 | 4.44° C | 99% | 1015.3 hPa | 0 mm | - | 0 W/m² | - |
| 1778063748 | 4.44° C | 99% | 1015.5 hPa | 0 mm | - | 0 W/m² | - |
| 1778062537 | 5° C | 99% | 1015.3 hPa | 0 mm | - | 0 W/m² | - |
| 1778062234 | 5° C | 99% | 1015.2 hPa | 0 mm | - | 0 W/m² | - |
| 1778061932 | 5° C | 99% | 1014.9 hPa | 0 mm | - | 0 W/m² | - |
| 1778061630 | 5° C | 99% | 1015.1 hPa | 0 mm | - | 0 W/m² | - |
| 1778061329 | 5° C | 99% | 1015 hPa | 0 mm | - | 0 W/m² | - |
| 1778060420 | 5° C | 99% | 1014.8 hPa | 0 mm | - | 0 W/m² | - |
| 1778059513 | 5° C | 99% | 1014.6 hPa | 0 mm | - | 0 W/m² | - |
| 1778059209 | 5° C | 99% | 1014.9 hPa | 0 mm | - | 0 W/m² | - |
* Rain latest hour (hover to see other rain measurements)
** Current wind speed in m/s (hover to see current wind gust speed)